Weather History for KANK - December, 2013

Change the Weather History Date:

Monday, December 30, 2013

  Actual Average (KGUC) Record (KGUC)
Temperature  
Mean Temperature 31 °F -  
Max Temperature 42 °F 23 °F 51 °F (2011)
Min Temperature 20 °F 0 °F -14 °F (2008)
Degree Days  
Heating Degree Days 34    
Moisture  
Dew Point 10 °F    
Average Humidity 41    
Maximum Humidity 62    
Minimum Humidity 28    
Precipitation  
Precipitation 0.00 in - - ()
Sea Level Pressure  
Sea Level Pressure 30.25 in    
Wind  
Wind Speed 10 mph (West)    
Max Wind Speed 22 mph    
Max Gust Speed 32 mph    
Visibility 10 miles    
Events      
Averages and records for this station are not official NWS values.
T = Trace of Precipitation, MM = Missing Value Source: NWS Daily Summary

Daily Weather History Graph

Daily Weather History Graph

Search for Another Location

Airport or City:

Trip Planner

Search our weather history database for the weather conditions in past years. The results will help you decide how hot, cold, wet, or windy it might be!

Date:

Astronomy

Dec. 30, 2013 Rise Set
Actual Time 7:21 AM MST 4:52 PM MST
Civil Twilight 6:51 AM MST 5:22 PM MST
Nautical Twilight 6:18 AM MST 5:55 PM MST
Astronomical Twilight 5:46 AM MST 6:27 PM MST
Moon 5:14 AM MST (12/30) 3:27 PM MST (12/30)
Length of Visible Light 10h 30m
Length of Day
9h 31m
Waning Crescent, 4% of the Moon is Illuminated
Dec 30
Waning Crescent
Jan 1
New
Jan 7
First Quarter
Jan 15
Full
Jan 23
Last Quarter

Hourly Weather History & Observations

Time (MST) Temp. Windchill Dew Point Humidity Pressure Visibility Wind Dir Wind Speed Gust Speed Precip Events Conditions
12:15 AM 29.8 °F 16.6 °F 9.3 °F 42% 30.11 in 10.0 mi SW 21.9 mph 32.2 mph N/A   Clear
12:35 AM 31.3 °F 19.9 °F 9.0 °F 39% 30.11 in 10.0 mi WSW 17.3 mph 32.2 mph N/A   Clear
12:55 AM 32.0 °F 20.1 °F 8.6 °F 38% 30.10 in 10.0 mi SW 19.6 mph 27.6 mph N/A   Clear
1:15 AM 33.1 °F 21.9 °F 8.8 °F 36% 30.09 in 10.0 mi SW 18.4 mph 28.8 mph N/A   Clear
1:35 AM 31.3 °F 19.9 °F 9.0 °F 39% 30.10 in 10.0 mi WSW 17.3 mph 26.5 mph N/A   Clear
1:55 AM 30.9 °F 19.1 °F 6.8 °F 36% 30.11 in 10.0 mi SSW 18.4 mph 28.8 mph N/A   Clear
2:15 AM 31.3 °F 23.3 °F 6.6 °F 35% 30.12 in 10.0 mi WSW 9.2 mph 25.3 mph N/A   Clear
2:35 AM 29.5 °F 24.5 °F 7.2 °F 39% 30.12 in 10.0 mi NE 4.6 mph - N/A   Clear
2:55 AM 29.1 °F 22.1 °F 7.3 °F 40% 30.12 in 10.0 mi NW 6.9 mph - N/A   Clear
3:15 AM 28.4 °F 23.3 °F 7.0 °F 40% 30.13 in 10.0 mi NW 4.6 mph - N/A   Clear
3:35 AM 24.3 °F 17.3 °F 8.4 °F 51% 30.13 in 10.0 mi NNE 5.8 mph - N/A   Clear
3:55 AM 23.7 °F - 9.1 °F 54% 30.12 in 10.0 mi Calm Calm - N/A   Clear
4:15 AM 23.2 °F - 8.4 °F 53% 30.11 in 10.0 mi Calm Calm - N/A   Clear
4:35 AM 22.5 °F 12.4 °F 8.6 °F 55% 30.11 in 10.0 mi North 9.2 mph - N/A   Clear
4:55 AM 22.8 °F 15.5 °F 9.3 °F 56% 30.12 in 10.0 mi North 5.8 mph - N/A   Clear
5:15 AM 20.5 °F 7.4 °F 9.3 °F 62% 30.15 in 10.0 mi North 13.8 mph - N/A   Clear
5:35 AM 24.1 °F 19.7 °F 9.1 °F 53% 30.16 in 10.0 mi NW 3.5 mph - N/A   Clear
5:55 AM 24.3 °F - 8.8 °F 52% 30.17 in 10.0 mi Calm Calm - N/A   Clear
6:15 AM 23.9 °F - 8.8 °F 53% 30.19 in 10.0 mi Calm Calm - N/A   Clear
6:35 AM 28.8 °F 16.6 °F 10.6 °F 47% 30.19 in 10.0 mi SSW 17.3 mph 21.9 mph N/A   Clear
6:55 AM 29.5 °F 19.9 °F 10.2 °F 45% 30.20 in 10.0 mi West 11.5 mph 21.9 mph N/A   Clear
7:15 AM 28.4 °F 19.7 °F 8.6 °F 43% 30.21 in 10.0 mi WSW 9.2 mph - N/A   Clear
7:35 AM 29.8 °F 18.4 °F 8.6 °F 41% 30.23 in 10.0 mi SW 16.1 mph 24.2 mph N/A   Clear
7:55 AM 29.7 °F 19.6 °F 9.5 °F 43% 30.24 in 10.0 mi WSW 12.7 mph 20.7 mph N/A   Clear
8:15 AM 30.9 °F 23.5 °F 10.9 °F 43% 30.25 in 10.0 mi SSW 8.1 mph 19.6 mph N/A   Clear
8:35 AM 31.1 °F 23.7 °F 11.7 °F 45% 30.27 in 10.0 mi WSW 8.1 mph - N/A   Clear
8:55 AM 29.1 °F 24.1 °F 11.3 °F 47% 30.28 in 10.0 mi NW 4.6 mph - N/A   Clear
9:15 AM 32.5 °F 28.1 °F 11.5 °F 42% 30.29 in 10.0 mi WNW 4.6 mph - N/A   Clear
9:35 AM 34.7 °F 28.8 °F 10.4 °F 37% 30.30 in 10.0 mi West 6.9 mph - N/A   Clear
9:55 AM 33.4 °F 27.3 °F 11.8 °F 41% 30.31 in 10.0 mi NW 6.9 mph - N/A   Clear
10:15 AM 33.8 °F 27.7 °F 12.6 °F 42% 30.32 in 10.0 mi NNW 6.9 mph - N/A   Clear
10:35 AM 36.0 °F 29.6 °F 12.6 °F 38% 30.32 in 10.0 mi WNW 8.1 mph - N/A   Clear
10:55 AM 37.6 °F 33.1 °F 10.8 °F 33% 30.32 in 10.0 mi WNW 5.8 mph - N/A   Clear
11:15 AM 38.3 °F 35.9 °F 10.6 °F 32% 30.32 in 10.0 mi North 3.5 mph - N/A   Clear
11:35 AM 38.3 °F 33.9 °F 10.8 °F 32% 30.31 in 10.0 mi WNW 5.8 mph - N/A   Clear
11:55 AM 38.5 °F 32.1 °F 11.7 °F 33% 30.30 in 10.0 mi North 9.2 mph - N/A   Clear
12:15 PM 38.8 °F 35.4 °F 10.6 °F 31% 30.29 in 10.0 mi NNW 4.6 mph - N/A   Clear
12:35 PM 39.6 °F 34.7 °F 10.9 °F 31% 30.28 in 10.0 mi West 6.9 mph - N/A   Clear
12:55 PM 41.5 °F 36.4 °F 11.1 °F 29% 30.27 in 10.0 mi WSW 8.1 mph 18.4 mph N/A   Clear
1:15 PM 41.9 °F 36.3 °F 11.8 °F 29% 30.27 in 10.0 mi SSW 9.2 mph 21.9 mph N/A   Clear
1:35 PM 41.9 °F 39.0 °F 12.4 °F 30% 30.27 in 10.0 mi NNW 4.6 mph - N/A   Clear
1:55 PM 41.0 °F 39.0 °F 11.7 °F 30% 30.27 in 10.0 mi NNW 3.5 mph - N/A   Clear
2:15 PM 41.2 °F 37.3 °F 11.7 °F 30% 30.27 in 10.0 mi NW 5.8 mph - N/A   Clear
2:35 PM 41.5 °F 39.6 °F 11.5 °F 29% 30.27 in 10.0 mi NNW 3.5 mph - N/A   Clear
2:55 PM 42.8 °F 38.6 °F 11.3 °F 28% 30.28 in 10.0 mi SW 6.9 mph - N/A   Clear
3:15 PM 42.1 °F 38.4 °F 10.8 °F 28% 30.29 in 10.0 mi WSW 5.8 mph - N/A   Clear
3:35 PM 41.2 °F 36.0 °F 10.6 °F 29% 30.29 in 10.0 mi WSW 8.1 mph - N/A   Clear
3:55 PM 40.1 °F 35.3 °F 10.0 °F 29% 30.29 in 10.0 mi WSW 6.9 mph - N/A   Clear
4:15 PM 38.5 °F 32.7 °F 10.4 °F 32% 30.29 in 10.0 mi SW 8.1 mph - N/A   Clear
4:35 PM 36.3 °F 30.1 °F 10.2 °F 34% 30.30 in 10.0 mi WSW 8.1 mph - N/A   Clear
4:55 PM 35.8 °F 30.1 °F 9.7 °F 34% 30.30 in 10.0 mi WSW 6.9 mph - N/A   Clear
5:15 PM 34.7 °F 28.1 °F 10.4 °F 37% 30.30 in 10.0 mi WSW 8.1 mph - N/A   Clear
5:35 PM 33.6 °F 26.8 °F 11.1 °F 39% 30.30 in 10.0 mi West 8.1 mph - N/A   Clear
5:55 PM 34.0 °F 26.0 °F 10.6 °F 38% 30.31 in 10.0 mi WSW 10.4 mph 16.1 mph N/A   Clear
6:15 PM 33.8 °F 27.0 °F 10.2 °F 38% 30.31 in 10.0 mi WSW 8.1 mph - N/A   Clear
6:35 PM 35.2 °F 28.1 °F 8.8 °F 33% 30.31 in 10.0 mi WSW 9.2 mph 18.4 mph N/A   Clear
6:55 PM 31.6 °F 27.0 °F 10.6 °F 42% 30.31 in 10.0 mi West 4.6 mph - N/A   Clear
7:15 PM 27.1 °F 20.7 °F 12.7 °F 55% 30.32 in 10.0 mi North 5.8 mph - N/A   Clear
7:35 PM 28.6 °F 21.5 °F 11.8 °F 50% 30.32 in 10.0 mi North 6.9 mph - N/A   Clear
7:55 PM 28.9 °F 21.9 °F 11.5 °F 48% 30.32 in 10.0 mi NNW 6.9 mph - N/A   Clear
8:15 PM 29.1 °F 24.1 °F 11.1 °F 47% 30.32 in 10.0 mi North 4.6 mph - N/A   Clear
8:35 PM 29.3 °F 21.5 °F 10.8 °F 46% 30.33 in 10.0 mi WNW 8.1 mph - N/A   Clear
8:55 PM 30.9 °F - 9.7 °F 41% 30.33 in 10.0 mi Calm Calm - N/A   Clear
9:15 PM 29.1 °F 22.1 °F 10.4 °F 46% 30.32 in 10.0 mi West 6.9 mph - N/A   Clear
9:35 PM 31.5 °F 21.4 °F 9.1 °F 39% 30.32 in 10.0 mi WSW 13.8 mph 21.9 mph N/A   Clear
9:55 PM 31.6 °F 25.1 °F 10.0 °F 41% 30.32 in 10.0 mi West 6.9 mph - N/A   Clear
10:15 PM 31.3 °F 24.7 °F 10.0 °F 41% 30.32 in 10.0 mi WSW 6.9 mph - N/A   Clear
10:35 PM 26.2 °F 16.4 °F 10.4 °F 51% 30.31 in 10.0 mi WNW 10.4 mph - N/A   Clear
10:55 PM 27.9 °F 24.0 °F 10.2 °F 48% 30.31 in 10.0 mi North 3.5 mph - N/A   Clear
11:15 PM 29.1 °F 19.4 °F 10.4 °F 46% 30.31 in 10.0 mi NW 11.5 mph - N/A   Clear
11:35 PM 30.6 °F 24.7 °F 11.7 °F 45% 30.30 in 10.0 mi West 5.8 mph - N/A   Clear
11:55 PM 32.7 °F 26.4 °F 10.2 °F 39% 30.29 in 10.0 mi NW 6.9 mph 18.4 mph N/A   Clear